Location: Chenango Forks
(42.2242°N, 75.8278°W)
Time: 10:54:09
(UTC-04:00)

Daily predictions for brighter satellites

Satellite Brightness Start Highest point End
(mag) Time Altitude Azimuth Time Altitude Azimuth Time Altitude Azimuth
Lacrosse 5 rocket 1.3 20:55:10 10° SW 20:59:00 87° NW 21:03:03 10° NE
Cosmos 1331 Rocket 4.1 20:55:30 10° NNW 21:00:44 70° ENE 21:05:53 10° SSE
Lacrosse 5 3.7 20:58:37 10° W 21:03:15 35° NNW 21:07:53 10° NE
Meteor 1-23 Rocket 4.3 20:59:11 10° S 21:04:42 59° E 21:10:19 10° NNE
Cosmos 2285 Rocket 4.1 20:59:40 10° NNW 21:05:59 68° ENE 21:12:17 10° SSE
Cosmos 1743 2.8 21:03:15 10° N 21:07:07 81° W 21:10:56 10° S
Cosmos 1302 Rocket 4.4 21:04:51 10° N 21:09:57 50° ENE 21:15:02 10° SE
Cosmos 1726 Rocket 3.7 21:06:04 10° N 21:10:33 85° W 21:14:58 10° S
SL-8 R/B 4.4 21:07:48 10° W 21:12:34 57° NNW 21:17:21 10° ENE
ALOS 3.4 21:10:24 10° S 21:14:51 45° W 21:19:21 10° NNW
SeaSat 1 2.8 21:10:37 10° SE 21:15:24 54° ENE 21:20:14 10° NNW
Okean 2 3.4 21:11:50 10° S 21:15:59 68° E 21:20:09 10° NNE
CZ-4B R/B 4.5 21:14:27 10° NE 21:18:48 28° E 21:23:11 10° SSE
Cosmos 1603 4.3 21:13:54 10° SSE 21:18:52 33° ESE 21:23:50 10° NE
Cosmos 1464 Rocket 4.0 21:12:59 10° N 21:19:08 75° E 21:25:16 10° SSE
Cosmos 2058 Rocket 3.1 21:17:10 10° N 21:21:34 85° W 21:25:55 10° S
APEX 3.7 21:18:17 10° NNW 21:22:11 63° ENE 21:26:56 12° SE
Meteor 2-9 Rocket 4.3 21:17:40 10° N 21:23:21 75° E 21:29:08 10° SSE
Meteor 2-4 Rocket 3.9 21:21:13 10° S 21:27:04 89° W 21:33:03 10° N
Cosmos 1602 Rocket 3.9 21:25:22 10° SSE 21:29:41 49° E 21:34:00 10° NNE
Cosmos 2333 Rocket 4.2 21:25:37 10° WSW 21:30:41 33° NW 21:35:47 10° N
Cosmos 1461 3.3 21:27:10 10° NNW 21:31:27 52° NE 21:34:38 16° SE
Cosmos 2251 Rocket 4.4 21:26:16 10° SW 21:31:28 55° WNW 21:36:46 10° NNE
deb Chang Zheng 4 3.9 21:27:21 10° N 21:31:46 70° WNW 21:36:06 10° SSW
Cosmos 2297 4.3 21:27:10 10° NNW 21:32:46 58° WSW 21:38:21 10° S
ATLAS 3B R/B 4.1 21:29:57 10° SSE 21:35:17 21° ESE 21:40:35 10° ENE
Milstar 3 Cent rocket 4.1 21:31:47 10° WSW 21:36:00 16° SSW 21:39:19 10° SSE
Cosmos 2034 Rocket 4.0 21:30:36 10° N 21:37:00 77° E 21:43:20 10° SSE
PSLV R/B 3.1 21:37:02 15° SSE 21:39:29 77° ENE 21:42:35 10° N
Cosmos 1812 Rocket 4.0 21:35:24 10° N 21:39:37 44° ENE 21:42:44 17° SE
CZ-2C R/B 3.3 21:38:05 10° SW 21:39:41 16° W 21:41:18 10° NW
ERS-1 Rocket 4.0 21:38:57 10° S 21:43:44 45° W 21:48:33 10° NNW
Cosmos 1943 4.4 21:41:51 16° SE 21:44:41 23° E 21:49:01 10° NE
Envisat 3.0 21:39:41 10° SSE 21:44:46 85° WSW 21:49:53 10° NNW
BREEZE-M DEB (TANK) 2.3 21:41:18 10° SW 21:45:48 54° SSE 21:47:57 10° ENE
USA 234 3.3 21:43:14 15° SE 21:48:52 81° NE 21:55:28 10° NW
YAOGAN 6 3.0 21:50:25 21° SE 21:52:37 51° ENE 21:56:16 10° N
H-2A R/B 3.4 21:49:36 10° SSW 21:53:30 36° W 21:57:30 10° NNW
Cosmos 1943 Rocket 4.3 21:53:33 10° NNE 21:56:38 15° NE 21:59:43 10° E
MetOp-A 4.1 21:56:20 16° SSE 22:00:45 90° SW 22:06:09 10° NNW
Abrixas rocket 2.8 21:59:00 10° WNW 22:02:18 45° SW 22:03:38 29° SSE
Cosmos 1626 Rocket 3.8 21:58:47 10° SSW 22:03:13 73° W 22:07:38 10° N
ATLAS CENTAUR R/B 4.4 22:00:13 10° W 22:04:19 25° NW 22:08:28 10° NNE
Meteor 2-12 Rocket 4.4 22:05:10 10° N 22:11:18 79° E 22:15:36 20° SSE
Atlas Centaur 2 3.7 22:07:19 10° SW 22:14:07 31° SSE 22:18:15 21° SE
CZ-4C R/B 3.8 22:15:26 30° SE 22:17:16 51° ENE 22:21:17 10° N
Cosmos 1953 Rocket 4.1 22:18:28 31° SE 22:19:50 39° E 22:23:58 10° NNE
H-2A R/B 2.7 22:19:21 25° ESE 22:21:31 38° ENE 22:26:09 10° N
PSLV R/B 3.6 22:18:53 10° SW 22:22:17 44° SSE 22:22:27 44° SSE
Cosmos 1992 Rocket 4.0 22:17:58 10° NNW 22:23:12 69° ENE 22:25:45 30° SE
COSMOS 2455 2.7 22:17:43 10° SSW 22:23:42 75° ESE 22:29:43 10° NNE
CZ-4 R/B 3.9 22:18:44 10° NNE 22:23:44 78° ESE 22:27:22 19° S
Cosmos 2369 Rocket 2.5 22:23:01 10° NNW 22:28:38 56° ENE 22:31:20 29° SE
SPOT 1/Viking Rocket 3.7 22:26:44 23° S 22:29:59 69° WSW 22:35:09 10° NNW
SPOT 5 4.2 22:26:56 12° SSW 22:30:33 31° W 22:34:26 10° NW
DELTA 2 DEB (DPAF) 4.1 22:29:30 35° SSE 22:31:22 75° ENE 22:35:52 10° N
ARGOS 3.2 22:29:23 26° S 22:32:32 83° WSW 22:38:00 10° NNW
SL-16 R/B 4.4 22:29:41 10° WSW 22:34:21 26° NW 22:39:02 10° N
Cosmos 1953 4.0 22:34:27 10° NNE 22:37:26 20° ENE 22:37:47 20° E
IGS 5A 4.1 22:36:44 35° ESE 22:37:43 41° ENE 22:41:39 10° N
Geosat 3.9 22:33:10 10° NNE 22:38:14 77° ESE 22:42:04 18° SSW
Lacrosse 5 rocket 4.2 22:35:57 10° WNW 22:38:50 19° NNW 22:41:50 10° NNE
Cosmos 1190 Rocket 4.1 22:37:26 30° S 22:39:55 60° ESE 22:45:10 10° NNE
NOAA 11 4.2 22:37:26 28° S 22:40:22 78° WSW 22:45:49 10° NNW
Landsat 7 3.7 22:40:04 38° SSE 22:41:54 79° ENE 22:46:40 10° N
Cosmos-2242 4.0 22:40:26 10° NNE 22:44:24 31° ENE 22:45:05 30° E
Meteor 1-22 Rocket 4.2 22:39:38 10° N 22:45:11 77° E 22:47:40 35° SSE
DEBRIS 4.5 22:43:24 10° W 22:45:18 14° WSW 22:45:18 14° WSW
Spot 2 4.5 22:45:06 10° NNE 22:49:46 56° E 22:51:03 43° SSE
Cosmos 2263 4.4 22:44:24 10° NNW 22:49:58 60° ENE 22:52:07 36° SE
SL-24 R/B 4.5 22:46:25 10° NNE 22:51:16 63° E 22:52:51 42° SSE
SeaSat 1 4.4 22:50:09 12° SSW 22:53:11 21° WSW 22:56:52 10° WNW
Cosmos 1758 Rocket 3.4 22:53:08 49° S 22:54:15 77° E 22:58:38 10° N
Lacrosse 4 Rocket 1.7 22:55:02 46° E 22:55:02 46° E 22:58:35 10° NE
Cosmos 676 Rocket 4.3 22:54:57 42° SE 22:56:07 49° ESE 23:01:15 10° NNE
SL-08 RB Rocket 4.2 22:55:15 32° SSW 22:57:03 52° W 23:01:31 10° NNW
Terra 1.7 22:56:20 47° SSE 22:57:41 79° ENE 23:02:28 10° N
CARTOSAT-1 3.5 22:57:34 54° SSE 22:58:32 86° ENE 23:02:53 10° NNW
Cosmos 1346 Rocket 2.9 23:03:05 49° SW 23:03:57 67° WNW 23:07:52 10° N
Cosmos 1140 Rocket 4.4 23:09:35 31° E 23:09:35 31° E 23:14:04 10° NE
Cosmos 1900 4.3 23:17:42 53° S 23:18:49 72° ESE 23:23:57 10° NE
Meteor 1-21 4.3 23:19:01 36° SSW 23:21:29 78° W 23:27:20 10° N
Cosmos 1758 3.5 23:17:43 10° N 23:21:45 62° ENE 23:21:45 62° ENE
Cosmos 1842 3.2 23:23:02 86° NW 23:23:02 86° NW 23:26:57 10° N
Nadezhda 4 Rocket 4.2 23:21:21 44° SE 23:23:03 58° E 23:29:16 10° NNE
Cosmos 1842 Rocket 4.2 23:19:38 10° N 23:23:48 42° ENE 23:23:51 42° E
ATLAS 3B R/B 2.9 23:17:29 10° SW 23:25:14 87° NW 23:32:48 10° NE
SL-27 R/B 4.1 23:29:34 26° NE 23:29:34 26° NE 23:31:16 10° NNE
Cosmos 1943 3.9 23:23:34 14° SW 23:28:19 52° WNW 23:33:54 10° NNE
Cosmos 407 Rocket 3.8 23:27:23 31° SW 23:29:51 63° WNW 23:35:04 10° NNE
USA 234 4.3 23:30:35 25° SSW 23:32:17 28° SW 23:37:49 10° WNW
Cosmos 2208 Rocket 4.3 23:32:25 10° N 23:37:29 51° ENE 23:38:18 47° E
Cosmos 1544 4.2 23:36:39 10° N 23:39:32 37° NE 23:39:32 37° NE
Cosmos 1943 Rocket 2.1 23:35:40 10° NNW 23:41:15 84° ENE 23:42:15 61° SE
Cosmos 1954 Rocket 4.1 23:47:03 51° SW 23:48:21 75° WNW 23:53:41 10° NNE
CZ-4B R/B 3.5 23:50:30 22° NE 23:50:30 22° NE 23:52:52 10° NNE
